This demonstration page uses our WeatherBlox Daily Observations layout. Learn more.

Left ArrowRight Arrow

44.81135, -91.49849

Hourly Observations for January 24, 2022

Temp ( °F °C ) Dew Point ( °F °C ) Humidity (%) Winds ( mph kmh ) Pressure ( in mb ) Visibility ( mi km ) Precip ( " mm )
12:04 am 00:04 Cloudy with Light Snow 6 -14.4 1 -17.2 79 79 SSE 8 13 29.77 1008 2 3 0.00 0.00
12:21 am 00:21 Cloudy with Haze 7 -13.9 1 -17.2 76 76 S 7 11 29.77 1008 4 6 0.00 0.00
12:29 am 00:29 Cloudy with Haze 7 -13.9 1 -17.2 76 76 S 8 13 29.76 1008 6 10 0.00 0.00
12:56 am 00:56 Cloudy 7 -13.9 1 -17.2 76 76 SSE 7 11 29.71 1006 10 16 0.00 0.00
1:56 am 01:56 Cloudy with Light Snow 7 -13.9 2 -16.7 80 80 SSE 6 9 29.69 1005 3 5 0.00 0.00
2:50 am 02:50 Cloudy with Light Snow 7 -14 3 -16 85 85 ESE 5 7 29.72 1006 2 3 0.00 0.00
2:51 am 02:51 Cloudy with Light Snow 7 -13.9 3 -16.1 84 84 ESE 5 7 29.68 1005 2 3 0.00 0.00
3:56 am 03:56 Cloudy with Light Snow 8 -13.3 3 -16.1 80 80 NE 3 6 29.67 1005 2 3 0.00 0.00
4:04 am 04:04 Cloudy with Light Snow 8 -13.3 3 -16.1 80 80 NE 3 6 29.71 1006 2 3 0.00 0.00
4:16 am 04:16 Cloudy with Light Snow 8 -13.3 4 -15.6 83 83 Calm 29.72 1006 1 2 0.00 0.00
4:56 am 04:56 Cloudy with Light Snow 8 -13.3 3 -16.1 80 80 NNE 3 6 29.68 1005 2 3 0.00 0.00
5:04 am 05:04 Cloudy with Light Snow 8 -13.3 3 -16.1 80 80 NNE 3 6 29.73 1007 3 4 0.00 0.00
5:11 am 05:11 Cloudy with Light Snow 8 -13.3 3 -16.1 80 80 NNE 5 7 29.73 1007 4 6 0.00 0.00
5:56 am 05:56 Cloudy 8 -13.3 3 -16.1 80 80 N 7 11 29.70 1006 10 16 0.00 0.00
6:56 am 06:56 Cloudy 7 -13.9 3 -16.1 84 84 N 7 11 29.73 1007 10 16 0.00 0.00
7:56 am 07:56 Cloudy 7 -13.9 1 -17.2 76 76 N 10 17 29.76 1008 10 16 0.00 0.00
8:56 am 08:56 Sunny 6 -14.4 -1 -18.3 73 73 N 8 13 29.80 1009 10 16 0.00 0.00
9:53 am 09:53 Mostly Cloudy 7 -14 0 -18 72 72 N 7 11 29.87 1012 10 16 0.00 0.00
9:56 am 09:56 Mostly Cloudy 7 -13.9 -2 -18.9 66 66 N 10 17 29.84 1010 10 16 0.00 0.00
10:07 am 10:07 Partly Cloudy 7 -13.9 -1 -18.3 70 70 NNW 7 11 29.88 1012 10 16 0.00 0.00
10:56 am 10:56 Partly Cloudy 8 -13.3 -1 -18.3 66 66 NW 10 17 29.88 1012 10 16 0.00 0.00
11:04 am 11:04 Mostly Cloudy 8 -13.3 -1 -18.3 66 66 NNW 8 13 29.91 1013 10 16 0.00 0.00
11:56 am 11:56 Partly Cloudy 10 -12.2 1 -17.2 67 67 NW 14 22 29.88 1012 10 16 0.00 0.00
12:56 pm 12:56 Partly Cloudy 12 -11.1 1 -17.2 61 61 NNW 15 24 29.89 1012 10 16 0.00 0.00
1:56 pm 13:56 Sunny 12 -11.1 0 -17.8 58 58 NNW 15 24 29.91 1013 10 16 0.00 0.00
2:56 pm 14:56 Sunny 12 -11.1 -2 -18.9 53 53 NNW 12 19 29.93 1014 10 16 0.00 0.00
3:56 pm 15:56 Sunny 11 -11.7 -3 -19.4 53 53 NW 9 15 29.96 1015 10 16 0.00 0.00
4:56 pm 16:56 Sunny 8 -13.3 -6 -21.1 52 52 NW 8 13 30.00 1016 10 16 0.00 0.00
5:56 pm 17:56 Clear 6 -14.4 -6 -21.1 57 57 W 5 7 30.03 1017 10 16 0.00 0.00
6:56 pm 18:56 Clear 5 -15 -7 -21.7 57 57 WNW 8 13 30.07 1018 10 16 0.00 0.00
7:56 pm 19:56 Clear 3 -16.1 -7 -21.7 62 62 WNW 6 9 30.08 1019 10 16 0.00 0.00
8:56 pm 20:56 Clear 0 -17.8 -9 -22.8 65 65 W 5 7 30.11 1020 10 16 0.00 0.00
9:56 pm 21:56 Clear 0 -17.8 -10 -23.3 62 62 W 5 7 30.14 1021 10 16 0.00 0.00
10:56 pm 22:56 Clear -4 -20 -12 -24.4 68 68 Calm 30.16 1021 10 16 0.00 0.00
11:56 pm 23:56 Clear -5 -20.6 -14 -25.6 64 64 WNW 6 9 30.18 1022 10 16 0.00 0.00

Powered by AerisWeather